Content
SEND FEEDBACK

Daily
Averages
Monthly
Summary
Switzerland

GENEVA, SWITZERLAND


Home > Europe > Switzerland
Elevation: 1364 feet     Latitude: 46 15N     Longitude: 006 08E

WEATHER
 
SELECT A DAY
Number of Records: 305,866;   Date Range: 7/1/96 - 8/12/14
 
SHARE

PRINT THIS DATA

[ ← Previous Day ]
WEATHER ALMANAC - MAY 4, 2013
[ Next Day → ]
[ °C ]   °F
Weather ElementAverageHighLow
Temperature54.1 °F61 °F (4:00 pm)50 °F (12:50 am)
Dewpoint48 °F51.8 °F (12:50 pm)45 °F (3:00 pm)
Humidity79 %100 % (8:20 am)45 % (4:00 pm)
Barometer30.11 in30.17 in (10:00 pm)30.06 in (1:50 am)
Wind Speed4.4 mph10.4 mph (4:50 pm)
Weather ElementAverage
Visibility6.6 mi
Wind DirectionE (88.5 °)

Weather ElementTotal
Precipitation---
Heating Degree Days9.5 (Base 65)
Growing Degree Days5.5 (Base 50)
Averaged from 66 records on May 4, 2013
WEATHER CONDITIONS BREAKOUT
WIND DIRECTION BREAKOUT
WEATHER BY HOUR - MAY 4, 2013
[ °C ]   °F
Local TimeTemperatureDewpointHumidityBarometerVisibilityWind DirectionWind SpeedGust SpeedPrecipitationEventsConditions
12:20 AM51.8 °F48.2 °F88 %30.09 in6.2 miWSW (250°)4.6 mphMostly Cloudy
12:50 AM50.0 °F48.2 °F94 %30.09 in6.2 miWSW (250°)3.5 mphMostly Cloudy
1:00 AM50.0 °F47.0 °F85 %30.10 inWest (280°)3.5 mph
1:20 AM50.0 °F48.2 °F94 %30.09 in5.6 miWest (260°)4.6 mphMostly Cloudy
1:50 AM50.0 °F48.2 °F94 %30.06 in5.0 miWest (260°)4.6 mphMostly Cloudy
2:00 AM51.0 °F47.0 °F81 %30.09 in12.0 miWSW (250°)4.6 mphPartly Cloudy
2:20 AM50.0 °F48.2 °F94 %30.06 in5.0 miWSW (240°)5.8 mphMostly Cloudy
2:50 AM50.0 °F48.2 °F94 %30.06 in6.2 miWSW (250°)4.6 mphMostly Cloudy
3:00 AM50.0 °F47.0 °F85 %30.08 inWSW (240°)4.6 mph
3:50 AM50.0 °F48.2 °F94 %30.06 in6.2 miSW (230°)5.8 mphMostly Cloudy
4:00 AM51.0 °F46.0 °F78 %30.08 inWSW (240°)5.8 mph
4:20 AM50.0 °F48.2 °F94 %30.06 in6.2 miSW (230°)4.6 mphMostly Cloudy
4:50 AM50.0 °F48.2 °F94 %30.06 in6.2 miSW (220°)3.5 mphMostly Cloudy
5:20 AM50.0 °F48.2 °F94 %30.06 in6.2 miVariable2.3 mphMostly Cloudy
5:50 AM50.0 °F48.2 °F94 %30.06 in6.2 miWSW (240°)4.6 mphMostly Cloudy
6:00 AM50.0 °F47.0 °F85 %30.07 inWSW (250°)3.5 mph
6:20 AM50.0 °F48.2 °F94 %30.06 in6.2 miVariable3.5 mphMostly Cloudy
6:50 AM50.0 °F48.2 °F94 %30.06 in6.2 miVariable2.3 mphMostly Cloudy
7:00 AM50.0 °F47.0 °F86 %30.09 inWSW (250°)2.3 mph
7:20 AM50.0 °F48.2 °F94 %30.06 in6.2 miWSW (250°)3.5 mphRainLight Rain Showers
7:50 AM50.0 °F48.2 °F94 %30.09 in4.3 miVariable1.2 mphRainLight Rain
8:00 AM51.0 °F48.0 °F86 %30.11 in4.0 miNorth (350°)1.2 mphRainLight Rain
8:20 AM50.0 °F50.0 °F100 %30.09 in3.7 miCalmRainLight Rain
8:50 AM50.0 °F50.0 °F100 %30.09 in3.7 miCalmRainLight Rain
9:00 AM51.0 °F48.0 °F87 %30.12 inNE (50°)2.3 mph
9:20 AM50.0 °F50.0 °F100 %30.12 in4.3 miVariable1.2 mphRainLight Rain
9:50 AM50.0 °F50.0 °F100 %30.12 in4.3 miVariable1.2 mphOvercast
10:00 AM51.0 °F48.0 °F87 %30.14 inEast (100°)2.3 mph
10:20 AM51.8 °F50.0 °F94 %30.12 in5.0 miVariable2.3 mphOvercast
10:50 AM51.8 °F50.0 °F94 %30.12 in5.6 miVariable1.2 mphOvercast
11:20 AM55.4 °F50.0 °F82 %30.15 in6.2 miVariable1.2 mphOvercast
11:50 AM55.4 °F50.0 °F82 %30.15 in6.2 miVariable2.3 mphRainLight Rain
12:00 PM54.0 °F48.0 °F74 %30.15 inWSW (240°)2.3 mph
12:20 PM55.4 °F50.0 °F82 %30.15 in6.2 miVariable2.3 mphRainLight Rain
12:50 PM59.0 °F51.8 °F77 %30.15 in6.2 miVariable2.3 mphMostly Cloudy
1:00 PM56.0 °F46.0 °F59 %30.14 inENE (70°)2.3 mph
1:20 PM57.2 °F48.2 °F72 %30.15 in6.2 miVariable2.3 mphMostly Cloudy
1:50 PM57.2 °F50.0 °F77 %30.15 in6.2 miVariable4.6 mphMostly Cloudy
2:00 PM57.0 °F48.0 °F64 %30.14 in16.0 miNE (50°)4.6 mphPartly Cloudy
2:20 PM59.0 °F50.0 °F72 %30.12 in6.2 miVariable4.6 mphMostly Cloudy
2:50 PM60.8 °F48.2 °F63 %30.12 in6.2 miVariable3.5 mphScattered Clouds
3:00 PM59.0 °F45.0 °F50 %30.12 inENE (70°)5.8 mph
3:20 PM60.8 °F48.2 °F63 %30.12 in6.2 miENE (70°)5.8 mphScattered Clouds
3:50 PM60.8 °F46.4 °F59 %30.12 in6.2 miENE (60°)6.9 mphScattered Clouds
4:00 PM61.0 °F45.0 °F45 %30.10 inNE (40°)9.2 mph
4:20 PM60.8 °F46.4 °F59 %30.12 in6.2 miNE (40°)9.2 mphPartly Cloudy
4:50 PM60.8 °F48.2 °F63 %30.12 in6.2 miNE (50°)10.4 mphPartly Cloudy
5:20 PM60.8 °F48.2 °F63 %30.12 in6.2 miNNE (30°)10.4 mphPartly Cloudy
5:50 PM60.8 °F46.4 °F59 %30.12 in6.2 miNNE (30°)10.4 mphPartly Cloudy
6:00 PM61.0 °F48.0 °F51 %30.10 inNNE (30°)6.9 mph
6:20 PM60.8 °F48.2 °F63 %30.12 in6.2 miNNE (30°)9.2 mphPartly Cloudy
6:50 PM60.8 °F48.2 °F63 %30.12 in6.2 miNNE (30°)8.1 mphPartly Cloudy
7:00 PM60.0 °F48.0 °F54 %30.11 inNNE (30°)8.1 mph
7:20 PM59.0 °F48.2 °F67 %30.12 in6.2 miNNE (30°)6.9 mphPartly Cloudy
7:50 PM59.0 °F48.2 °F67 %30.12 in6.2 miNNE (30°)6.9 mphPartly Cloudy
8:00 PM58.0 °F47.0 °F57 %30.12 in28.0 miNNE (30°)6.9 mphScattered Clouds
8:20 PM59.0 °F48.2 °F67 %30.12 in6.2 miNNE (30°)8.1 mphPartly Cloudy
8:50 PM55.4 °F48.2 °F77 %30.12 in6.2 miNNE (20°)6.9 mphPartly Cloudy
9:00 PM54.0 °F47.0 °F68 %30.14 inNorth (10°)4.6 mph
9:20 PM53.6 °F46.4 °F77 %30.15 in6.2 miNorth (10°)4.6 mphPartly Cloudy
9:50 PM51.8 °F46.4 °F82 %30.15 inVariable2.3 mphClear
10:00 PM52.0 °F46.0 °F75 %30.17 inNE (40°)1.2 mph
10:20 PM51.8 °F46.4 °F82 %30.15 inVariable2.3 mphClear
10:50 PM51.8 °F46.4 °F82 %30.15 inNNE (20°)5.8 mphClear
11:20 PM51.8 °F46.4 °F82 %30.15 inNNE (30°)4.6 mphClear
11:50 PM51.8 °F46.4 °F82 %30.15 inNNE (30°)4.6 mphClear
Hourly data recorded from LSGG, located miles away from Geneva, Switzerland







STORIES FROM OUR PARTNERS